owner,sensor,date,latitude,longitude,vertical_datum,direction_of_sea_water_velocity,sea_water_speed,upward_sea_water_velocity,qcFlag 
WAVCIS,ioos:station:WAVCIS:CSI16:1,2010-05-01T00:00:00Z,29.4012,-89.0355,10.36,85.0,0.402,-99999.0,'11133222,11111222,99999999' 
WAVCIS,ioos:station:WAVCIS:CSI16:1,2010-05-01T01:00:00Z,29.4012,-89.0355,10.36,150.0,0.225,-99999.0,'11133222,11111222,99999999' 
WAVCIS,ioos:station:WAVCIS:CSI16:1,2010-05-01T02:00:00Z,29.4012,-89.0355,10.36,155.0,0.219,-99999.0,'11133222,11111222,99999999' 
WAVCIS,ioos:station:WAVCIS:CSI16:1,2010-05-01T03:00:00Z,29.4012,-89.0355,10.36,172.0,0.24,-99999.0,'11133222,11111222,99999999' 
WAVCIS,ioos:station:WAVCIS:CSI16:1,2010-05-01T04:00:00Z,29.4012,-89.0355,10.36,171.0,0.234,-99999.0,'11133222,11111222,99999999' 
WAVCIS,ioos:station:WAVCIS:CSI16:1,2010-05-01T05:00:00Z,29.4012,-89.0355,10.36,165.0,0.226,-99999.0,'11133222,11111222,99999999' 
WAVCIS,ioos:station:WAVCIS:CSI16:1,2010-05-01T06:00:00Z,29.4012,-89.0355,10.36,198.0,0.213,-99999.0,'11133222,11111222,99999999' 
WAVCIS,ioos:station:WAVCIS:CSI16:1,2010-05-01T07:00:00Z,29.4012,-89.0355,10.36,230.0,0.226,-99999.0,'11133222,11111222,99999999' 
WAVCIS,ioos:station:WAVCIS:CSI16:1,2010-05-01T08:00:00Z,29.4012,-89.0355,10.86,230.0,0.17,-99999.0,'11133222,11111222,99999999' 
WAVCIS,ioos:station:WAVCIS:CSI16:1,2010-05-01T09:00:00Z,29.4012,-89.0355,10.86,242.0,0.061,-99999.0,'11133222,11111222,99999999' 
WAVCIS,ioos:station:WAVCIS:CSI16:1,2010-05-01T10:00:00Z,29.4012,-89.0355,10.86,276.0,0.185,-99999.0,'11133222,11111222,99999999' 
WAVCIS,ioos:station:WAVCIS:CSI16:1,2010-05-01T11:00:00Z,29.4012,-89.0355,10.86,270.0,0.074,-99999.0,'11133222,11111222,99999999' 
WAVCIS,ioos:station:WAVCIS:CSI16:1,2010-05-01T12:00:00Z,29.4012,-89.0355,10.86,275.0,0.097,-99999.0,'11133222,11111222,99999999' 
WAVCIS,ioos:station:WAVCIS:CSI16:1,2010-05-01T13:00:00Z,29.4012,-89.0355,10.86,291.0,0.176,-99999.0,'11133222,11111222,99999999' 
WAVCIS,ioos:station:WAVCIS:CSI16:1,2010-05-01T14:00:00Z,29.4012,-89.0355,11.36,297.0,0.271,-99999.0,'11133222,11111222,99999999' 
WAVCIS,ioos:station:WAVCIS:CSI16:1,2010-05-01T15:00:00Z,29.4012,-89.0355,10.86,307.0,0.246,-99999.0,'11133222,11111222,99999999' 
WAVCIS,ioos:station:WAVCIS:CSI16:1,2010-05-01T16:00:00Z,29.4012,-89.0355,10.86,323.0,0.203,-99999.0,'11133222,11111222,99999999' 
WAVCIS,ioos:station:WAVCIS:CSI16:1,2010-05-01T17:00:00Z,29.4012,-89.0355,10.86,345.0,0.189,-99999.0,'11133222,11111222,99999999' 
WAVCIS,ioos:station:WAVCIS:CSI16:1,2010-05-01T18:00:00Z,29.4012,-89.0355,10.86,356.0,0.205,-99999.0,'11133222,11111222,99999999' 
WAVCIS,ioos:station:WAVCIS:CSI16:1,2010-05-01T19:00:00Z,29.4012,-89.0355,10.86,1.0,0.209,-99999.0,'11133222,11111222,99999999' 
WAVCIS,ioos:station:WAVCIS:CSI16:1,2010-05-01T20:00:00Z,29.4012,-89.0355,10.86,26.0,0.2,-99999.0,'11133222,11111222,99999999' 
WAVCIS,ioos:station:WAVCIS:CSI16:1,2010-05-01T21:00:00Z,29.4012,-89.0355,10.86,43.0,0.229,-99999.0,'11133222,11111222,99999999' 
WAVCIS,ioos:station:WAVCIS:CSI16:1,2010-05-01T22:00:00Z,29.4012,-89.0355,10.86,55.0,0.252,-99999.0,'11133222,11111222,99999999' 
WAVCIS,ioos:station:WAVCIS:CSI16:1,2010-05-01T23:00:00Z,29.4012,-89.0355,10.36,74.0,0.328,-99999.0,'11133222,11111222,99999999' 
WAVCIS,ioos:station:WAVCIS:CSI16:1,2010-05-02T00:00:00Z,29.4012,-89.0355,10.36,79.0,0.35,-99999.0,'11133222,11111222,99999999' 
WAVCIS,ioos:station:WAVCIS:CSI16:1,2010-05-02T01:00:00Z,29.4012,-89.0355,10.36,85.0,0.342,-99999.0,'11133222,11111222,99999999' 
WAVCIS,ioos:station:WAVCIS:CSI16:1,2010-05-02T02:00:00Z,29.4012,-89.0355,10.36,86.0,0.334,-99999.0,'11133222,11111222,99999999' 
WAVCIS,ioos:station:WAVCIS:CSI16:1,2010-05-02T03:00:00Z,29.4012,-89.0355,10.36,84.0,0.301,-99999.0,'11133222,11111222,99999999' 
WAVCIS,ioos:station:WAVCIS:CSI16:1,2010-05-02T04:00:00Z,29.4012,-89.0355,10.36,69.0,0.254,-99999.0,'11133222,11111222,99999999' 
WAVCIS,ioos:station:WAVCIS:CSI16:1,2010-05-02T05:00:00Z,29.4012,-89.0355,10.36,75.0,0.228,-99999.0,'11133222,11111222,99999999' 
WAVCIS,ioos:station:WAVCIS:CSI16:1,2010-05-02T06:00:00Z,29.4012,-89.0355,10.36,52.0,0.177,-99999.0,'11133222,11111222,99999999' 
WAVCIS,ioos:station:WAVCIS:CSI16:1,2010-05-02T07:00:00Z,29.4012,-89.0355,10.36,6.0,0.145,-99999.0,'11133222,11111222,99999999' 
WAVCIS,ioos:station:WAVCIS:CSI16:1,2010-05-02T08:00:00Z,29.4012,-89.0355,10.36,268.0,0.05,-99999.0,'11133222,11111222,99999999' 
WAVCIS,ioos:station:WAVCIS:CSI16:1,2010-05-02T09:00:00Z,29.4012,-89.0355,10.86,306.0,0.199,-99999.0,'11133222,11111222,99999999' 
WAVCIS,ioos:station:WAVCIS:CSI16:1,2010-05-02T10:00:00Z,29.4012,-89.0355,10.86,310.0,0.278,-99999.0,'11133222,11111222,99999999' 
WAVCIS,ioos:station:WAVCIS:CSI16:1,2010-05-02T11:00:00Z,29.4012,-89.0355,10.86,311.0,0.3,-99999.0,'11133222,11111222,99999999' 
WAVCIS,ioos:station:WAVCIS:CSI16:1,2010-05-02T12:00:00Z,29.4012,-89.0355,10.86,309.0,0.345,-99999.0,'11133222,11111222,99999999' 
WAVCIS,ioos:station:WAVCIS:CSI16:1,2010-05-02T13:00:00Z,29.4012,-89.0355,10.86,311.0,0.362,-99999.0,'11133222,11111222,99999999' 
WAVCIS,ioos:station:WAVCIS:CSI16:1,2010-05-02T14:00:00Z,29.4012,-89.0355,10.86,311.0,0.34,-99999.0,'11133222,11111222,99999999' 
WAVCIS,ioos:station:WAVCIS:CSI16:1,2010-05-02T15:00:00Z,29.4012,-89.0355,10.86,318.0,0.336,-99999.0,'11133222,11111222,99999999' 
WAVCIS,ioos:station:WAVCIS:CSI16:1,2010-05-02T16:00:00Z,29.4012,-89.0355,10.86,325.0,0.334,-99999.0,'11133222,11111222,99999999' 
WAVCIS,ioos:station:WAVCIS:CSI16:1,2010-05-02T17:00:00Z,29.4012,-89.0355,10.86,330.0,0.313,-99999.0,'11133222,11111222,99999999' 
WAVCIS,ioos:station:WAVCIS:CSI16:1,2010-05-02T18:00:00Z,29.4012,-89.0355,10.86,351.0,0.242,-99999.0,'11133222,11111222,99999999' 
WAVCIS,ioos:station:WAVCIS:CSI16:1,2010-05-02T19:00:00Z,29.4012,-89.0355,10.86,9.0,0.337,-99999.0,'11133222,11111222,99999999' 
WAVCIS,ioos:station:WAVCIS:CSI16:1,2010-05-02T20:00:00Z,29.4012,-89.0355,10.86,27.0,0.208,-99999.0,'11133222,11111222,99999999' 
WAVCIS,ioos:station:WAVCIS:CSI16:1,2010-05-02T21:00:00Z,29.4012,-89.0355,10.86,62.0,0.204,-99999.0,'11133222,11111222,99999999' 
WAVCIS,ioos:station:WAVCIS:CSI16:1,2010-05-02T22:00:00Z,29.4012,-89.0355,10.86,25.0,0.287,-99999.0,'11133222,11111222,99999999' 
WAVCIS,ioos:station:WAVCIS:CSI16:1,2010-05-02T23:00:00Z,29.4012,-89.0355,10.86,58.0,0.224,-99999.0,'11133222,11111222,99999999' 
WAVCIS,ioos:station:WAVCIS:CSI16:1,2010-05-03T00:00:00Z,29.4012,-89.0355,10.86,67.0,0.203,-99999.0,'11133222,11111222,99999999' 
WAVCIS,ioos:station:WAVCIS:CSI16:1,2010-05-03T01:00:00Z,29.4012,-89.0355,10.86,70.0,0.224,-99999.0,'11133222,11111222,99999999' 
WAVCIS,ioos:station:WAVCIS:CSI16:1,2010-05-03T02:00:00Z,29.4012,-89.0355,10.36,78.0,0.29,-99999.0,'11133222,11111222,99999999' 
WAVCIS,ioos:station:WAVCIS:CSI16:1,2010-05-03T03:00:00Z,29.4012,-89.0355,10.36,49.0,0.423,-99999.0,'11133222,11111222,99999999' 
WAVCIS,ioos:station:WAVCIS:CSI16:1,2010-05-03T04:00:00Z,29.4012,-89.0355,10.36,59.0,0.395,-99999.0,'11133222,11111222,99999999' 
WAVCIS,ioos:station:WAVCIS:CSI16:1,2010-05-03T05:00:00Z,29.4012,-89.0355,10.36,59.0,0.46,-99999.0,'11133222,11111222,99999999' 
WAVCIS,ioos:station:WAVCIS:CSI16:1,2010-05-03T06:00:00Z,29.4012,-89.0355,10.36,66.0,0.324,-99999.0,'11133222,11111222,99999999' 
WAVCIS,ioos:station:WAVCIS:CSI16:1,2010-05-03T07:00:00Z,29.4012,-89.0355,10.86,64.0,0.206,-99999.0,'11133222,11111222,99999999' 
WAVCIS,ioos:station:WAVCIS:CSI16:1,2010-05-03T08:00:00Z,29.4012,-89.0355,10.86,86.0,0.195,-99999.0,'11133222,11111222,99999999' 
WAVCIS,ioos:station:WAVCIS:CSI16:1,2010-05-03T09:00:00Z,29.4012,-89.0355,10.86,121.0,0.149,-99999.0,'11133222,11111222,99999999' 
WAVCIS,ioos:station:WAVCIS:CSI16:1,2010-05-03T10:00:00Z,29.4012,-89.0355,10.86,106.0,0.147,-99999.0,'11133222,11111222,99999999' 
WAVCIS,ioos:station:WAVCIS:CSI16:1,2010-05-03T11:00:00Z,29.4012,-89.0355,10.86,114.0,0.123,-99999.0,'11133222,11111222,99999999' 
WAVCIS,ioos:station:WAVCIS:CSI16:1,2010-05-03T12:00:00Z,29.4012,-89.0355,10.86,39.0,0.077,-99999.0,'11133222,11111222,99999999' 
WAVCIS,ioos:station:WAVCIS:CSI16:1,2010-05-03T13:00:00Z,29.4012,-89.0355,10.86,17.0,0.049,-99999.0,'11133222,11111222,99999999' 
WAVCIS,ioos:station:WAVCIS:CSI16:1,2010-05-03T14:00:00Z,29.4012,-89.0355,11.36,15.0,0.098,-99999.0,'11133222,11111222,99999999' 
WAVCIS,ioos:station:WAVCIS:CSI16:1,2010-05-03T15:00:00Z,29.4012,-89.0355,11.36,22.0,0.067,-99999.0,'11133222,11111222,99999999' 
WAVCIS,ioos:station:WAVCIS:CSI16:1,2010-05-03T16:00:00Z,29.4012,-89.0355,11.36,55.0,0.078,-99999.0,'11133222,11111222,99999999' 
WAVCIS,ioos:station:WAVCIS:CSI16:1,2010-05-03T17:00:00Z,29.4012,-89.0355,11.36,126.0,0.062,-99999.0,'11133222,11111222,99999999' 
WAVCIS,ioos:station:WAVCIS:CSI16:1,2010-05-03T18:00:00Z,29.4012,-89.0355,11.36,165.0,0.145,-99999.0,'11133222,11111222,99999999' 
WAVCIS,ioos:station:WAVCIS:CSI16:1,2010-05-03T19:00:00Z,29.4012,-89.0355,11.36,191.0,0.124,-99999.0,'11133222,11111222,99999999' 
WAVCIS,ioos:station:WAVCIS:CSI16:1,2010-05-03T20:00:00Z,29.4012,-89.0355,11.36,194.0,0.184,-99999.0,'11133222,11111222,99999999' 
WAVCIS,ioos:station:WAVCIS:CSI16:1,2010-05-03T21:00:00Z,29.4012,-89.0355,11.36,207.0,0.146,-99999.0,'11133222,11111222,99999999' 
WAVCIS,ioos:station:WAVCIS:CSI16:1,2010-05-03T22:00:00Z,29.4012,-89.0355,10.86,218.0,0.149,-99999.0,'11133222,11111222,99999999' 
WAVCIS,ioos:station:WAVCIS:CSI16:1,2010-05-03T23:00:00Z,29.4012,-89.0355,10.86,212.0,0.102,-99999.0,'11133222,11111222,99999999' 
WAVCIS,ioos:station:WAVCIS:CSI16:1,2010-05-04T00:00:00Z,29.4012,-89.0355,10.86,158.0,0.147,-99999.0,'11133222,11111222,99999999' 
WAVCIS,ioos:station:WAVCIS:CSI16:1,2010-05-04T01:00:00Z,29.4012,-89.0355,10.86,142.0,0.148,-99999.0,'11133222,11111222,99999999' 
WAVCIS,ioos:station:WAVCIS:CSI16:1,2010-05-04T02:00:00Z,29.4012,-89.0355,10.86,148.0,0.195,-99999.0,'11133222,11111222,99999999' 
WAVCIS,ioos:station:WAVCIS:CSI16:1,2010-05-04T03:00:00Z,29.4012,-89.0355,10.86,153.0,0.229,-99999.0,'11133222,11111222,99999999' 
WAVCIS,ioos:station:WAVCIS:CSI16:1,2010-05-04T04:00:00Z,29.4012,-89.0355,10.86,157.0,0.352,-99999.0,'11133222,11111222,99999999' 
WAVCIS,ioos:station:WAVCIS:CSI16:1,2010-05-04T05:00:00Z,29.4012,-89.0355,10.86,156.0,0.304,-99999.0,'11133222,11111222,99999999' 
WAVCIS,ioos:station:WAVCIS:CSI16:1,2010-05-04T06:00:00Z,29.4012,-89.0355,10.86,172.0,0.19,-99999.0,'11133222,11111222,99999999' 
WAVCIS,ioos:station:WAVCIS:CSI16:1,2010-05-04T07:00:00Z,29.4012,-89.0355,10.86,155.0,0.212,-99999.0,'11133222,11111222,99999999' 
WAVCIS,ioos:station:WAVCIS:CSI16:1,2010-05-04T08:00:00Z,29.4012,-89.0355,10.86,167.0,0.18,-99999.0,'11133222,11111222,99999999' 
WAVCIS,ioos:station:WAVCIS:CSI16:1,2010-05-04T09:00:00Z,29.4012,-89.0355,10.86,155.0,0.192,-99999.0,'11133222,11111222,99999999' 
WAVCIS,ioos:station:WAVCIS:CSI16:1,2010-05-04T10:00:00Z,29.4012,-89.0355,10.86,164.0,0.168,-99999.0,'11133222,11111222,99999999' 
WAVCIS,ioos:station:WAVCIS:CSI16:1,2010-05-04T11:00:00Z,29.4012,-89.0355,10.86,169.0,0.157,-99999.0,'11133222,11111222,99999999' 
WAVCIS,ioos:station:WAVCIS:CSI16:1,2010-05-04T12:00:00Z,29.4012,-89.0355,11.36,163.0,0.15,-99999.0,'11133222,11111222,99999999' 
WAVCIS,ioos:station:WAVCIS:CSI16:1,2010-05-04T13:00:00Z,29.4012,-89.0355,11.36,191.0,0.167,-99999.0,'11133222,11111222,99999999' 
WAVCIS,ioos:station:WAVCIS:CSI16:1,2010-05-04T14:00:00Z,29.4012,-89.0355,11.36,194.0,0.155,-99999.0,'11133222,11111222,99999999' 
WAVCIS,ioos:station:WAVCIS:CSI16:1,2010-05-04T15:00:00Z,29.4012,-89.0355,11.36,190.0,0.217,-99999.0,'11133222,11111222,99999999' 
WAVCIS,ioos:station:WAVCIS:CSI16:1,2010-05-04T16:00:00Z,29.4012,-89.0355,11.36,188.0,0.191,-99999.0,'11133222,11111222,99999999' 
WAVCIS,ioos:station:WAVCIS:CSI16:1,2010-05-04T17:00:00Z,29.4012,-89.0355,11.36,188.0,0.176,-99999.0,'11133222,11111222,99999999' 
WAVCIS,ioos:station:WAVCIS:CSI16:1,2010-05-04T18:00:00Z,29.4012,-89.0355,11.36,184.0,0.1,-99999.0,'11133222,11111222,99999999' 
WAVCIS,ioos:station:WAVCIS:CSI16:1,2010-05-04T19:00:00Z,29.4012,-89.0355,11.36,171.0,0.114,-99999.0,'11133222,11111222,99999999' 
WAVCIS,ioos:station:WAVCIS:CSI16:1,2010-05-04T20:00:00Z,29.4012,-89.0355,11.36,175.0,0.162,-99999.0,'11133222,11111222,99999999' 
WAVCIS,ioos:station:WAVCIS:CSI16:1,2010-05-04T21:00:00Z,29.4012,-89.0355,11.36,157.0,0.138,-99999.0,'11133222,11111222,99999999' 
WAVCIS,ioos:station:WAVCIS:CSI16:1,2010-05-04T22:00:00Z,29.4012,-89.0355,11.36,153.0,0.154,-99999.0,'11133222,11111222,99999999' 
WAVCIS,ioos:station:WAVCIS:CSI16:1,2010-05-04T23:00:00Z,29.4012,-89.0355,10.86,163.0,0.157,-99999.0,'11133222,11111222,99999999' 
WAVCIS,ioos:station:WAVCIS:CSI16:1,2010-05-05T00:00:00Z,29.4012,-89.0355,10.86,158.0,0.186,-99999.0,'11133222,11111222,99999999' 
WAVCIS,ioos:station:WAVCIS:CSI16:1,2010-05-05T01:00:00Z,29.4012,-89.0355,10.86,154.0,0.227,-99999.0,'11133222,11111222,99999999' 
WAVCIS,ioos:station:WAVCIS:CSI16:1,2010-05-05T02:00:00Z,29.4012,-89.0355,10.86,156.0,0.322,-99999.0,'11133222,11111222,99999999' 
WAVCIS,ioos:station:WAVCIS:CSI16:1,2010-05-05T03:00:00Z,29.4012,-89.0355,10.86,159.0,0.423,-99999.0,'11133222,11111222,99999999' 
WAVCIS,ioos:station:WAVCIS:CSI16:1,2010-05-05T04:00:00Z,29.4012,-89.0355,10.86,162.0,0.423,-99999.0,'11133222,11111222,99999999' 
WAVCIS,ioos:station:WAVCIS:CSI16:1,2010-05-05T05:00:00Z,29.4012,-89.0355,10.86,159.0,0.374,-99999.0,'11133222,11111222,99999999' 
WAVCIS,ioos:station:WAVCIS:CSI16:1,2010-05-05T06:00:00Z,29.4012,-89.0355,10.86,161.0,0.327,-99999.0,'11133222,11111222,99999999' 
WAVCIS,ioos:station:WAVCIS:CSI16:1,2010-05-05T07:00:00Z,29.4012,-89.0355,10.86,165.0,0.312,-99999.0,'11133222,11111222,99999999' 
WAVCIS,ioos:station:WAVCIS:CSI16:1,2010-05-05T08:00:00Z,29.4012,-89.0355,10.86,167.0,0.243,-99999.0,'11133222,11111222,99999999' 
WAVCIS,ioos:station:WAVCIS:CSI16:1,2010-05-05T09:00:00Z,29.4012,-89.0355,10.86,170.0,0.241,-99999.0,'11133222,11111222,99999999' 
WAVCIS,ioos:station:WAVCIS:CSI16:1,2010-05-05T10:00:00Z,29.4012,-89.0355,11.36,181.0,0.085,-99999.0,'11133222,11111222,99999999' 
WAVCIS,ioos:station:WAVCIS:CSI16:1,2010-05-05T11:00:00Z,29.4012,-89.0355,11.36,240.0,0.059,-99999.0,'11133222,11111222,99999999' 
WAVCIS,ioos:station:WAVCIS:CSI16:1,2010-05-05T12:00:00Z,29.4012,-89.0355,11.36,247.0,0.065,-99999.0,'11133222,11111222,99999999' 
WAVCIS,ioos:station:WAVCIS:CSI16:1,2010-05-05T13:00:00Z,29.4012,-89.0355,11.36,265.0,0.042,-99999.0,'11133222,11111222,99999999' 
WAVCIS,ioos:station:WAVCIS:CSI16:1,2010-05-05T14:00:00Z,29.4012,-89.0355,11.36,271.0,0.097,-99999.0,'11133222,11111222,99999999' 
WAVCIS,ioos:station:WAVCIS:CSI16:1,2010-05-05T15:00:00Z,29.4012,-89.0355,11.36,280.0,0.167,-99999.0,'11133222,11111222,99999999' 
WAVCIS,ioos:station:WAVCIS:CSI16:1,2010-05-05T16:00:00Z,29.4012,-89.0355,11.36,288.0,0.215,-99999.0,'11133222,11111222,99999999' 
WAVCIS,ioos:station:WAVCIS:CSI16:1,2010-05-05T17:00:00Z,29.4012,-89.0355,11.36,290.0,0.192,-99999.0,'11133222,11111222,99999999' 
WAVCIS,ioos:station:WAVCIS:CSI16:1,2010-05-05T18:00:00Z,29.4012,-89.0355,11.36,290.0,0.202,-99999.0,'11133222,11111222,99999999' 
WAVCIS,ioos:station:WAVCIS:CSI16:1,2010-05-05T19:00:00Z,29.4012,-89.0355,11.36,303.0,0.159,-99999.0,'11133222,11111222,99999999' 
WAVCIS,ioos:station:WAVCIS:CSI16:1,2010-05-05T20:00:00Z,29.4012,-89.0355,11.36,288.0,0.187,-99999.0,'11133222,11111222,99999999' 
WAVCIS,ioos:station:WAVCIS:CSI16:1,2010-05-05T21:00:00Z,29.4012,-89.0355,11.36,293.0,0.187,-99999.0,'11133222,11111222,99999999' 
WAVCIS,ioos:station:WAVCIS:CSI16:1,2010-05-05T22:00:00Z,29.4012,-89.0355,11.36,356.0,0.136,-99999.0,'11133222,11111222,99999999' 
WAVCIS,ioos:station:WAVCIS:CSI16:1,2010-05-05T23:00:00Z,29.4012,-89.0355,11.36,334.0,0.129,-99999.0,'11133222,11111222,99999999' 
WAVCIS,ioos:station:WAVCIS:CSI16:1,2010-05-06T00:00:00Z,29.4012,-89.0355,11.36,61.0,0.129,-99999.0,'11133222,11111222,99999999' 
WAVCIS,ioos:station:WAVCIS:CSI16:1,2010-05-06T01:00:00Z,29.4012,-89.0355,11.36,33.0,0.156,-99999.0,'11133222,11111222,99999999' 
WAVCIS,ioos:station:WAVCIS:CSI16:1,2010-05-06T02:00:00Z,29.4012,-89.0355,10.86,125.0,0.292,-99999.0,'11133222,11111222,99999999' 
WAVCIS,ioos:station:WAVCIS:CSI16:1,2010-05-06T03:00:00Z,29.4012,-89.0355,10.86,128.0,0.352,-99999.0,'11133222,11111222,99999999' 
WAVCIS,ioos:station:WAVCIS:CSI16:1,2010-05-06T04:00:00Z,29.4012,-89.0355,10.86,129.0,0.365,-99999.0,'11133222,11111222,99999999' 
WAVCIS,ioos:station:WAVCIS:CSI16:1,2010-05-06T05:00:00Z,29.4012,-89.0355,10.86,121.0,0.481,-99999.0,'11133222,11111222,99999999' 
WAVCIS,ioos:station:WAVCIS:CSI16:1,2010-05-06T06:00:00Z,29.4012,-89.0355,10.86,132.0,0.397,-99999.0,'11133222,11111222,99999999' 
WAVCIS,ioos:station:WAVCIS:CSI16:1,2010-05-06T07:00:00Z,29.4012,-89.0355,10.86,141.0,0.221,-99999.0,'11133222,11111222,99999999' 
WAVCIS,ioos:station:WAVCIS:CSI16:1,2010-05-06T08:00:00Z,29.4012,-89.0355,10.86,143.0,0.197,-99999.0,'11133222,11111222,99999999' 
WAVCIS,ioos:station:WAVCIS:CSI16:1,2010-05-06T09:00:00Z,29.4012,-89.0355,10.86,157.0,0.167,-99999.0,'11133222,11111222,99999999' 
WAVCIS,ioos:station:WAVCIS:CSI16:1,2010-05-06T10:00:00Z,29.4012,-89.0355,11.36,118.0,0.091,-99999.0,'11133222,11111222,99999999' 
WAVCIS,ioos:station:WAVCIS:CSI16:1,2010-05-06T11:00:00Z,29.4012,-89.0355,11.36,136.0,0.08,-99999.0,'11133222,11111222,99999999' 
WAVCIS,ioos:station:WAVCIS:CSI16:1,2010-05-06T12:00:00Z,29.4012,-89.0355,11.36,159.0,0.08,-99999.0,'11133222,11111222,99999999' 
WAVCIS,ioos:station:WAVCIS:CSI16:1,2010-05-06T13:00:00Z,29.4012,-89.0355,11.36,174.0,0.068,-99999.0,'11133222,11111222,99999999' 
WAVCIS,ioos:station:WAVCIS:CSI16:1,2010-05-06T14:00:00Z,29.4012,-89.0355,11.36,198.0,0.043,-99999.0,'11133222,11111222,99999999' 
WAVCIS,ioos:station:WAVCIS:CSI16:1,2010-05-06T15:00:00Z,29.4012,-89.0355,11.36,284.0,0.032,-99999.0,'11133222,11111222,99999999' 
WAVCIS,ioos:station:WAVCIS:CSI16:1,2010-05-06T16:00:00Z,29.4012,-89.0355,11.36,290.0,0.076,-99999.0,'11133222,11111222,99999999' 
WAVCIS,ioos:station:WAVCIS:CSI16:1,2010-05-06T17:00:00Z,29.4012,-89.0355,11.36,293.0,0.084,-99999.0,'11133222,11111222,99999999' 
WAVCIS,ioos:station:WAVCIS:CSI16:1,2010-05-06T18:00:00Z,29.4012,-89.0355,11.36,302.0,0.078,-99999.0,'11133222,11111222,99999999' 
WAVCIS,ioos:station:WAVCIS:CSI16:1,2010-05-06T19:00:00Z,29.4012,-89.0355,11.36,299.0,0.052,-99999.0,'11133222,11111222,99999999' 
WAVCIS,ioos:station:WAVCIS:CSI16:1,2010-05-06T20:00:00Z,29.4012,-89.0355,11.36,313.0,0.033,-99999.0,'11133222,11111222,99999999' 
WAVCIS,ioos:station:WAVCIS:CSI16:1,2010-05-06T21:00:00Z,29.4012,-89.0355,11.36,318.0,0.04,-99999.0,'11133222,11111222,99999999' 
WAVCIS,ioos:station:WAVCIS:CSI16:1,2010-05-06T22:00:00Z,29.4012,-89.0355,11.36,309.0,0.087,-99999.0,'11133222,11111222,99999999' 
WAVCIS,ioos:station:WAVCIS:CSI16:1,2010-05-06T23:00:00Z,29.4012,-89.0355,11.36,303.0,0.148,-99999.0,'11133222,11111222,99999999' 
WAVCIS,ioos:station:WAVCIS:CSI16:1,2010-05-07T00:00:00Z,29.4012,-89.0355,11.36,311.0,0.173,-99999.0,'11133222,11111222,99999999' 
WAVCIS,ioos:station:WAVCIS:CSI16:1,2010-05-07T01:00:00Z,29.4012,-89.0355,11.36,294.0,0.064,-99999.0,'11133222,11111222,99999999' 
WAVCIS,ioos:station:WAVCIS:CSI16:1,2010-05-07T02:00:00Z,29.4012,-89.0355,11.36,339.0,0.057,-99999.0,'11133222,11111222,99999999' 
WAVCIS,ioos:station:WAVCIS:CSI16:1,2010-05-07T03:00:00Z,29.4012,-89.0355,11.36,3.0,0.04,-99999.0,'11133222,11111222,99999999' 
WAVCIS,ioos:station:WAVCIS:CSI16:1,2010-05-07T04:00:00Z,29.4012,-89.0355,10.86,118.0,0.083,-99999.0,'11133222,11111222,99999999' 
WAVCIS,ioos:station:WAVCIS:CSI16:1,2010-05-07T05:00:00Z,29.4012,-89.0355,10.86,50.0,0.045,-99999.0,'11133222,11111222,99999999' 
WAVCIS,ioos:station:WAVCIS:CSI16:1,2010-05-07T06:00:00Z,29.4012,-89.0355,10.86,34.0,0.168,-99999.0,'11133222,11111222,99999999' 
WAVCIS,ioos:station:WAVCIS:CSI16:1,2010-05-07T07:00:00Z,29.4012,-89.0355,10.86,34.0,0.215,-99999.0,'11133222,11111222,99999999' 
WAVCIS,ioos:station:WAVCIS:CSI16:1,2010-05-07T08:00:00Z,29.4012,-89.0355,10.86,37.0,0.258,-99999.0,'11133222,11111222,99999999' 
WAVCIS,ioos:station:WAVCIS:CSI16:1,2010-05-07T09:00:00Z,29.4012,-89.0355,10.86,32.0,0.258,-99999.0,'11133222,11111222,99999999' 
WAVCIS,ioos:station:WAVCIS:CSI16:1,2010-05-07T10:00:00Z,29.4012,-89.0355,10.86,39.0,0.246,-99999.0,'11133222,11111222,99999999' 
WAVCIS,ioos:station:WAVCIS:CSI16:1,2010-05-07T11:00:00Z,29.4012,-89.0355,11.36,0.0,0.181,-99999.0,'11133222,11111222,99999999' 
WAVCIS,ioos:station:WAVCIS:CSI16:1,2010-05-07T12:00:00Z,29.4012,-89.0355,11.36,330.0,0.158,-99999.0,'11133222,11111222,99999999' 
WAVCIS,ioos:station:WAVCIS:CSI16:1,2010-05-07T13:00:00Z,29.4012,-89.0355,11.36,331.0,0.117,-99999.0,'11133222,11111222,99999999' 
WAVCIS,ioos:station:WAVCIS:CSI16:1,2010-05-07T14:00:00Z,29.4012,-89.0355,11.36,296.0,0.145,-99999.0,'11133222,11111222,99999999' 
WAVCIS,ioos:station:WAVCIS:CSI16:1,2010-05-07T15:00:00Z,29.4012,-89.0355,11.36,311.0,0.132,-99999.0,'11133222,11111222,99999999' 
WAVCIS,ioos:station:WAVCIS:CSI16:1,2010-05-07T16:00:00Z,29.4012,-89.0355,11.36,345.0,0.159,-99999.0,'11133222,11111222,99999999' 
WAVCIS,ioos:station:WAVCIS:CSI16:1,2010-05-07T17:00:00Z,29.4012,-89.0355,11.36,8.0,0.303,-99999.0,'11133222,11111222,99999999' 
WAVCIS,ioos:station:WAVCIS:CSI16:1,2010-05-07T18:00:00Z,29.4012,-89.0355,11.36,19.0,0.279,-99999.0,'11133222,11111222,99999999' 
WAVCIS,ioos:station:WAVCIS:CSI16:1,2010-05-07T19:00:00Z,29.4012,-89.0355,11.36,20.0,0.311,-99999.0,'11133222,11111222,99999999' 
WAVCIS,ioos:station:WAVCIS:CSI16:1,2010-05-07T20:00:00Z,29.4012,-89.0355,11.36,22.0,0.287,-99999.0,'11133222,11111222,99999999' 
WAVCIS,ioos:station:WAVCIS:CSI16:1,2010-05-07T21:00:00Z,29.4012,-89.0355,11.36,35.0,0.187,-99999.0,'11133222,11111222,99999999' 
WAVCIS,ioos:station:WAVCIS:CSI16:1,2010-05-07T22:00:00Z,29.4012,-89.0355,11.36,37.0,0.139,-99999.0,'11133222,11111222,99999999' 
WAVCIS,ioos:station:WAVCIS:CSI16:1,2010-05-07T23:00:00Z,29.4012,-89.0355,11.36,24.0,0.154,-99999.0,'11133222,11111222,99999999' 
WAVCIS,ioos:station:WAVCIS:CSI16:1,2010-05-08T00:00:00Z,29.4012,-89.0355,11.36,37.0,0.279,-99999.0,'11133222,11111222,99999999' 
WAVCIS,ioos:station:WAVCIS:CSI16:1,2010-05-08T01:00:00Z,29.4012,-89.0355,11.36,14.0,0.244,-99999.0,'11133222,11111222,99999999' 
WAVCIS,ioos:station:WAVCIS:CSI16:1,2010-05-08T02:00:00Z,29.4012,-89.0355,10.86,358.0,0.185,-99999.0,'11133222,11111222,99999999' 
WAVCIS,ioos:station:WAVCIS:CSI16:1,2010-05-08T03:00:00Z,29.4012,-89.0355,10.86,351.0,0.197,-99999.0,'11133222,11111222,99999999' 
WAVCIS,ioos:station:WAVCIS:CSI16:1,2010-05-08T04:00:00Z,29.4012,-89.0355,10.86,353.0,0.233,-99999.0,'11133222,11111222,99999999' 
WAVCIS,ioos:station:WAVCIS:CSI16:1,2010-05-08T05:00:00Z,29.4012,-89.0355,10.86,350.0,0.22,-99999.0,'11133222,11111222,99999999' 
WAVCIS,ioos:station:WAVCIS:CSI16:1,2010-05-08T06:00:00Z,29.4012,-89.0355,11.36,39.0,0.206,-99999.0,'11133222,11111222,99999999' 
WAVCIS,ioos:station:WAVCIS:CSI16:1,2010-05-08T07:00:00Z,29.4012,-89.0355,11.36,33.0,0.216,-99999.0,'11133222,11111222,99999999' 
WAVCIS,ioos:station:WAVCIS:CSI16:1,2010-05-08T08:00:00Z,29.4012,-89.0355,11.36,66.0,0.181,-99999.0,'11133222,11111222,99999999' 
WAVCIS,ioos:station:WAVCIS:CSI16:1,2010-05-08T09:00:00Z,29.4012,-89.0355,10.86,40.0,0.105,-99999.0,'11133222,11111222,99999999' 
WAVCIS,ioos:station:WAVCIS:CSI16:1,2010-05-08T10:00:00Z,29.4012,-89.0355,10.86,80.0,0.097,-99999.0,'11133222,11111222,99999999' 
WAVCIS,ioos:station:WAVCIS:CSI16:1,2010-05-08T11:00:00Z,29.4012,-89.0355,11.36,40.0,0.087,-99999.0,'11133222,11111222,99999999' 
WAVCIS,ioos:station:WAVCIS:CSI16:1,2010-05-08T12:00:00Z,29.4012,-89.0355,11.36,71.0,0.046,-99999.0,'11133222,11111222,99999999' 
WAVCIS,ioos:station:WAVCIS:CSI16:1,2010-05-08T13:00:00Z,29.4012,-89.0355,11.36,83.0,0.108,-99999.0,'11133222,11111222,99999999' 
WAVCIS,ioos:station:WAVCIS:CSI16:1,2010-05-08T14:00:00Z,29.4012,-89.0355,11.36,90.0,0.104,-99999.0,'11133222,11111222,99999999' 
WAVCIS,ioos:station:WAVCIS:CSI16:1,2010-05-08T15:00:00Z,29.4012,-89.0355,11.36,109.0,0.141,-99999.0,'11133222,11111222,99999999' 